NORTHERN QUEENS  -  Air Quality Alert Air Quality Alert        SOUTHERN QUEENS  -  Air Quality Alert Air Quality Alert      

Active alerts

Northern Queens
  Details for Northern Queens Air Quality Alert
Southern Queens
  Details for Southern Queens Air Quality Alert


WXM80 ListenWXM80 Stop

You find our weather info also at:

UK Metoffice

WeatherCloud

Weather Underground

Northeastern Weather Network

AWEKAS

Citizen Weather Observer Program (CWOP)

HAMweather, WeatherForYou, PWS Weather


Weather Underground History page Text

Daily Summary for August 5, 2017 Units:  Metric    English   Both
« Previous Day
Next Day »
Daily Weekly Monthly Yearly Custom
  High: Low: Average:
Temperature: 28.2 °C 21.2 °C 24.1 °C
Dew Point: 22.9 °C 14.3 °C 20.4 °C
Humidity: 97 % 60 % 81 %
Wind Speed: 12.2 km/h 0 km/h 3.4 km/h
Wind Gust: 24.1 km/h - -
Wind:- - SW
Pressure: 1013.1 hPa 1008 hPa -
Precipitation: 0.25 mm    
Historical Graphs
 
 
Tabular Data for August 5, 2017
Time Temperature Dew Point Pressure Wind Wind Speed Wind Gust Humidity Rainfall Rate (Hourly)
00:00 23.8 °C 22.3 °C 1012.1 hPa SE 2.7 km/h 5.6 km/h 91 % 0 mm
00:05 23.8 °C 22.3 °C 1012.1 hPa South 2.7 km/h 16.7 km/h 91 % 0 mm
00:11 23.9 °C 22.3 °C 1012.1 hPa SSE 1.4 km/h 5.6 km/h 91 % 0 mm
00:16 23.9 °C 22.3 °C 1012.1 hPa SSE 5 km/h 11.1 km/h 91 % 0 mm
00:21 23.9 °C 22.4 °C 1012.1 hPa SE 4.8 km/h 16.1 km/h 91 % 0 mm
00:26 23.9 °C 22.4 °C 1012.1 hPa SE 3.2 km/h 9.7 km/h 91 % 0 mm
00:31 24 °C 22.3 °C 1012.1 hPa SE 1.6 km/h 9.7 km/h 90 % 0 mm
00:36 24.1 °C 22.3 °C 1012.1 hPa Calm   4.8 km/h 90 % 0 mm
00:41 24 °C 22.1 °C 1012.1 hPa South 1.6 km/h 16.1 km/h 89 % 0 mm
00:45 24 °C 22.1 °C 1011.7 hPa SSE 6.8 km/h 9.3 km/h 89 % 0 mm
00:50 24 °C 22.1 °C 1012.1 hPa SE 1.6 km/h 5.6 km/h 89 % 0 mm
00:56 24 °C 21.9 °C 1011.7 hPa Calm   9.7 km/h 88 % 0 mm
01:01 24 °C 21.9 °C 1011.7 hPa South 0.6 km/h 3.7 km/h 88 % 0 mm
01:06 24 °C 21.9 °C 1011.7 hPa SSE 2.4 km/h 5.6 km/h 88 % 0 mm
01:11 24 °C 21.9 °C 1011.7 hPa SSE 1.4 km/h 5.6 km/h 88 % 0 mm
01:16 24 °C 21.9 °C 1011.7 hPa SE 0.5 km/h 5.6 km/h 88 % 0 mm
01:21 24 °C 22.1 °C 1011.7 hPa SSE 1.8 km/h 5.6 km/h 89 % 0 mm
01:26 24 °C 22.1 °C 1011.4 hPa ESE 2.1 km/h 5.6 km/h 89 % 0 mm
01:31 24 °C 22.1 °C 1011.4 hPa SE 3.7 km/h 11.1 km/h 89 % 0 mm
01:36 24 °C 22.1 °C 1011.4 hPa SSE 1.1 km/h 5.6 km/h 89 % 0 mm
01:41 24 °C 22.1 °C 1011.4 hPa SSE 4 km/h 11.1 km/h 89 % 0 mm
01:46 24.1 °C 22.1 °C 1011.1 hPa SSE 2.7 km/h 6.4 km/h 89 % 0 mm
01:51 24.1 °C 22.1 °C 1011.1 hPa SE 0.5 km/h 1.9 km/h 89 % 0 mm
01:56 24.1 °C 22.2 °C 1011.1 hPa SSE 0.2 km/h 3.2 km/h 89 % 0 mm
02:01 24.1 °C 22.2 °C 1011.1 hPa SSE 1.1 km/h 5.6 km/h 89 % 0 mm
02:06 24.1 °C 22.2 °C 1011.1 hPa South 6.3 km/h 14.5 km/h 89 % 0 mm
02:11 24.1 °C 22.4 °C 1010.7 hPa SSE 0.5 km/h 3.7 km/h 90 % 0 mm
02:16 24.1 °C 22.4 °C 1010.7 hPa SE 7.6 km/h 11.3 km/h 90 % 0 mm
02:21 24.2 °C 22.4 °C 1010.7 hPa SE 9.8 km/h 14.5 km/h 90 % 0 mm
02:26 24.2 °C 22.4 °C 1010.7 hPa SE 6.4 km/h 11.1 km/h 90 % 0 mm
02:27 24.2 °C 22.4 °C 1010.7 hPa SSE 5 km/h 11.1 km/h 90 % 0 mm
02:32 24.2 °C 22.4 °C 1010.7 hPa SSE 7.2 km/h 13 km/h 90 % 0 mm
02:37 24.2 °C 22.4 °C 1010.7 hPa Calm   1.6 km/h 90 % 0 mm
02:42 24.2 °C 22.4 °C 1010.7 hPa SE 1 km/h 3.7 km/h 90 % 0 mm
02:47 24.2 °C 22.4 °C 1010.7 hPa SW 0.6 km/h 5.6 km/h 90 % 0 mm
02:52 24.2 °C 22.4 °C 1010.7 hPa SSE 0.6 km/h 3.7 km/h 90 % 0 mm
02:57 24.1 °C 22.4 °C 1010.7 hPa SW 3.1 km/h 7.4 km/h 90 % 0 mm
03:02 24.1 °C 22.4 °C 1010.4 hPa SSE 0.3 km/h 3.7 km/h 90 % 0 mm
03:07 24.1 °C 22.4 °C 1010.4 hPa SSE 1 km/h 5.6 km/h 90 % 0 mm
03:12 24.1 °C 22.4 °C 1010.4 hPa South 6 km/h 11.1 km/h 90 % 0 mm
03:17 24.1 °C 22.4 °C 1010.4 hPa Calm     90 % 0 mm
03:22 24.1 °C 22.4 °C 1010.4 hPa SSE 0.6 km/h 1.9 km/h 90 % 0 mm
03:27 24.1 °C 22.4 °C 1010.4 hPa SE 0.6 km/h 3.7 km/h 90 % 0 mm
03:32 24.1 °C 22.3 °C 1010 hPa SSW 1 km/h 5.6 km/h 90 % 0 mm
03:37 24.1 °C 22.3 °C 1010 hPa Calm   1.9 km/h 90 % 0 mm
03:42 24 °C 22.3 °C 1010 hPa SE 1 km/h 5.6 km/h 90 % 0 mm
03:47 23.9 °C 22.2 °C 1010 hPa SE 0.3 km/h   90 % 0 mm
03:52 23.9 °C 22.2 °C 1010 hPa Calm   1.9 km/h 90 % 0 mm
03:57 23.9 °C 22.2 °C 1010 hPa Calm     90 % 0 mm
04:02 23.8 °C 21.9 °C 1010 hPa SE 1 km/h 4.8 km/h 89 % 0 mm
04:07 23.8 °C 21.8 °C 1009.7 hPa Calm   3.7 km/h 89 % 0 mm
04:12 23.7 °C 21.8 °C 1010 hPa Calm   1.9 km/h 89 % 0 mm
04:17 23.7 °C 21.7 °C 1010 hPa SE 0.6 km/h 1.6 km/h 89 % 0 mm
04:23 23.6 °C 21.9 °C 1009.7 hPa SE 1.6 km/h 3.7 km/h 90 % 0 mm
04:28 23.6 °C 21.9 °C 1009.7 hPa SE 4.7 km/h 8 km/h 90 % 0 mm
04:33 23.6 °C 21.8 °C 1009.7 hPa SE 3.1 km/h 6.4 km/h 90 % 0 mm
04:38 23.6 °C 22 °C 1009.7 hPa Calm   1.9 km/h 91 % 0 mm
04:43 23.6 °C 22 °C 1009.7 hPa SE 0.6 km/h 5.6 km/h 91 % 0 mm
04:48 23.6 °C 22.2 °C 1009.7 hPa SE 2.9 km/h 5.6 km/h 92 % 0 mm
04:53 23.6 °C 22.2 °C 1009.7 hPa SE 2.9 km/h 5.6 km/h 92 % 0 mm
04:58 23.7 °C 22.4 °C 1009.7 hPa SE 0.5 km/h 8 km/h 93 % 0 mm
05:03 23.6 °C 22.4 °C 1009.7 hPa SE 0.5 km/h 5.6 km/h 93 % 0 mm
05:08 23.6 °C 22.4 °C 1009.4 hPa SE 1.9 km/h 5.6 km/h 93 % 0 mm
05:13 23.6 °C 22.3 °C 1009.4 hPa SSE 6.4 km/h 13 km/h 93 % 0 mm
05:18 23.6 °C 22.6 °C 1009.4 hPa SE 2.6 km/h 9.7 km/h 94 % 0 mm
05:23 23.6 °C 22.6 °C 1009.4 hPa SSE 4 km/h 11.1 km/h 94 % 0 mm
05:28 23.6 °C 22.6 °C 1009.4 hPa SE 1 km/h 5.6 km/h 94 % 0 mm
05:33 23.6 °C 22.6 °C 1009.4 hPa SE 0.8 km/h 5.6 km/h 94 % 0 mm
05:38 23.5 °C 22.5 °C 1009.4 hPa SSE 3.1 km/h 7.4 km/h 94 % 0 mm
05:43 23.5 °C 22.5 °C 1009.7 hPa Calm   1.6 km/h 94 % 0 mm
05:48 23.5 °C 22.5 °C 1009.4 hPa SE 1.4 km/h 3.7 km/h 94 % 0 mm
05:53 23.5 °C 22.5 °C 1009.4 hPa SE 0.2 km/h 1.9 km/h 94 % 0 mm
05:58 23.5 °C 22.5 °C 1009.4 hPa SE 0.8 km/h 5.6 km/h 94 % 0 mm
06:03 23.4 °C 22.4 °C 1009.4 hPa SSW 0.2 km/h 5.6 km/h 94 % 0 mm
06:08 23.4 °C 22.4 °C 1009.4 hPa SSE 2.1 km/h 5.6 km/h 94 % 0 mm
06:13 23.3 °C 22.3 °C 1009.4 hPa Calm   3.7 km/h 94 % 0 mm
06:18 23.3 °C 22.3 °C 1009.4 hPa SSE 0.8 km/h 1.9 km/h 94 % 0 mm
06:23 23.3 °C 22.3 °C 1009.7 hPa SSE 0.2 km/h 1.9 km/h 94 % 0 mm
06:29 23.2 °C 22.2 °C 1009.7 hPa WSW 0.5 km/h 1.9 km/h 94 % 0 mm
06:34 23.2 °C 22.4 °C 1009.7 hPa SW 2.1 km/h 9.3 km/h 95 % 0 mm
06:39 23.2 °C 22.4 °C 1009.7 hPa SW 0.2 km/h 3.7 km/h 95 % 0 mm
06:44 23.2 °C 22.3 °C 1010 hPa SW 2.6 km/h 5.6 km/h 95 % 0 mm
06:49 23.2 °C 22.3 °C 1010 hPa SW 0.5 km/h 3.7 km/h 95 % 0 mm
06:54 23.2 °C 22.3 °C 1009.7 hPa Calm     95 % 0 mm
06:59 23.2 °C 22.3 °C 1009.7 hPa SE 1.6 km/h 3.7 km/h 95 % 0 mm
07:04 23.2 °C 22.3 °C 1009 hPa SE 5.6 km/h 12.9 km/h 95 % 0 mm
07:09 23.2 °C 22.5 °C 1008.7 hPa SE 8.9 km/h 16.7 km/h 96 % 0 mm
07:14 23.2 °C 22.5 °C 1008.7 hPa SE 1.9 km/h 5.6 km/h 96 % 0 mm
07:19 23.2 °C 22.5 °C 1008.7 hPa SSE 3.1 km/h 11.1 km/h 96 % 0 mm
07:24 23.2 °C 22.5 °C 1008.7 hPa SE 9.3 km/h 14.5 km/h 96 % 0 mm
07:29 23.1 °C 22.4 °C 1008.4 hPa ESE 10.5 km/h 16.7 km/h 96 % 0 mm
07:34 23.1 °C 22.4 °C 1008.4 hPa SE 5.6 km/h 14.8 km/h 96 % 0 mm
07:39 23.1 °C 22.4 °C 1008.4 hPa South 10.9 km/h 24.1 km/h 96 % 0 mm
07:44 23.1 °C 22.4 °C 1008 hPa SSE 9.8 km/h 18.5 km/h 96 % 0 mm
07:49 23.2 °C 22.5 °C 1008 hPa ESE 4.8 km/h 11.1 km/h 96 % 0 mm
07:54 23.2 °C 22.5 °C 1008.4 hPa SSE 7.9 km/h 12.9 km/h 96 % 0 mm
08:00 23.2 °C 22.7 °C 1008.4 hPa SSE 3.9 km/h 11.1 km/h 97 % 0 mm
08:05 23.2 °C 22.5 °C 1008.7 hPa South 0.2 km/h 13 km/h 96 % 0 mm
08:10 23 °C 22.3 °C 1008.7 hPa SSE 7.1 km/h 14.8 km/h 96 % 0 mm
08:15 22.8 °C 21.9 °C 1008.7 hPa SE 3.2 km/h 13 km/h 95 % 0 mm
08:20 22.5 °C 21.7 °C 1008.7 hPa SSE 0.2 km/h 1.9 km/h 95 % 0 mm
08:25 22.4 °C 21.6 °C 1009 hPa SSW 3.1 km/h 5.6 km/h 95 % 0 mm
08:30 22.3 °C 21.4 °C 1009 hPa SW 2.6 km/h 9.3 km/h 95 % 0 mm
08:35 22.3 °C 21.4 °C 1009 hPa West 1.4 km/h 3.7 km/h 95 % 0 mm
08:40 22.2 °C 21.4 °C 1009.4 hPa West 5.5 km/h 11.1 km/h 95 % 0 mm
08:45 22.2 °C 21.3 °C 1009.7 hPa WSW 1.9 km/h 13 km/h 95 % 0 mm
08:50 22.2 °C 21.3 °C 1009.4 hPa West 3.2 km/h 7.4 km/h 95 % 0 mm
08:55 22.2 °C 21.3 °C 1009.7 hPa SSW 4.7 km/h 5.6 km/h 95 % 0 mm
09:00 22.1 °C 21.3 °C 1009.7 hPa SW 0.5 km/h 1.9 km/h 95 % 0 mm
09:06 22.1 °C 21.3 °C 1009.7 hPa SW 3.2 km/h 6.4 km/h 95 % 0 mm
09:11 22.1 °C 21.3 °C 1009.7 hPa WSW 1.6 km/h 9.7 km/h 95 % 0 mm
09:16 22.1 °C 21.3 °C 1009.7 hPa Calm   9.7 km/h 95 % 0 mm
09:21 22.1 °C 21.3 °C 1009.7 hPa Calm     95 % 0 mm
09:26 22.1 °C 21.4 °C 1009.7 hPa WSW 1 km/h 5.6 km/h 96 % 0 mm
09:31 22.1 °C 21.4 °C 1010 hPa SW 0.2 km/h 1.9 km/h 96 % 0 mm
09:36 22.1 °C 21.4 °C 1010 hPa Calm     96 % 0 mm
09:41 22.1 °C 21.4 °C 1010 hPa Calm     96 % 0 mm
09:46 22.1 °C 21.4 °C 1010 hPa Calm     96 % 0 mm
09:51 22.1 °C 21.4 °C 1010 hPa Calm     96 % 0 mm
09:56 22.1 °C 21.4 °C 1010 hPa Calm     96 % 0 mm
10:01 22.1 °C 21.4 °C 1010 hPa SW 0.6 km/h 3.7 km/h 96 % 0 mm
10:06 22.1 °C 21.4 °C 1010 hPa Calm     96 % 0 mm
10:11 22.2 °C 21.5 °C 1010 hPa Calm     96 % 0 mm
10:16 22.3 °C 21.6 °C 1010 hPa Calm   1.9 km/h 96 % 0 mm
10:21 22.4 °C 21.8 °C 1010 hPa SW 0.8 km/h 5.6 km/h 96 % 0 mm
10:26 22.6 °C 21.9 °C 1010 hPa SW 0.3 km/h 3.7 km/h 96 % 0 mm
10:31 22.9 °C 22.4 °C 1010 hPa SSW 6.4 km/h 16.7 km/h 97 % 0 mm
10:36 22.9 °C 22.3 °C 1010 hPa West 1.9 km/h 5.6 km/h 96 % 0 mm
10:41 22.9 °C 22.3 °C 1010 hPa SW 0.5 km/h 5.6 km/h 96 % 0 mm
10:46 23.1 °C 22.4 °C 1010 hPa West 0.6 km/h 5.6 km/h 96 % 0 mm
10:51 23.2 °C 22.3 °C 1010 hPa WSW 4.2 km/h 5.6 km/h 95 % 0 mm
10:56 23.2 °C 22.4 °C 1010 hPa SW 2.3 km/h 11.1 km/h 95 % 0 mm
11:02 23.3 °C 22.3 °C 1010 hPa West 0.2 km/h 1.9 km/h 94 % 0 mm
11:06 23.4 °C 22.4 °C 1010 hPa WSW 0.8 km/h 1.9 km/h 94 % 0 mm
11:11 23.5 °C 22.3 °C 1010 hPa SSE 0.8 km/h 3.7 km/h 93 % 0 mm
11:16 23.6 °C 22.2 °C 1010 hPa SSE 1.3 km/h 3.2 km/h 92 % 0 mm
11:21 23.7 °C 22.1 °C 1010 hPa WSW 0.2 km/h   91 % 0 mm
11:27 23.8 °C 22.3 °C 1010 hPa WSW 0.3 km/h 1.9 km/h 91 % 0 mm
11:32 23.9 °C 22.4 °C 1010 hPa SW 0.8 km/h 7.4 km/h 91 % 0 mm
11:42 24.1 °C 22.6 °C 1010 hPa WNW 0.6 km/h 5.6 km/h 91 % 0 mm
11:47 24.3 °C 22.6 °C 1010 hPa SW 2.3 km/h 7.4 km/h 90 % 0 mm
11:52 24.5 °C 22.9 °C 1010 hPa WSW 3.2 km/h 3.7 km/h 91 % 0 mm
11:57 24.6 °C 22.6 °C 1010 hPa WSW 5.1 km/h 6.4 km/h 89 % 0 mm
12:02 24.7 °C 22.6 °C 1010 hPa WSW 4 km/h 7.4 km/h 88 % 0 mm
12:07 24.8 °C 22.5 °C 1010 hPa West 6 km/h 11.1 km/h 87 % 0 mm
12:12 25 °C 22.5 °C 1010 hPa West 6 km/h 11.1 km/h 86 % 0 mm
12:17 25 °C 22.1 °C 1010 hPa West 4.7 km/h 11.1 km/h 84 % 0 mm
12:22 25.1 °C 22.2 °C 1010 hPa West 6 km/h 9.7 km/h 84 % 0 mm
12:27 25 °C 22.1 °C 1009.7 hPa WSW 1.8 km/h 6.4 km/h 84 % 0 mm
12:32 25.1 °C 22.2 °C 1009.7 hPa WSW 2.7 km/h 5.6 km/h 84 % 0 mm
12:37 25.1 °C 22.4 °C 1009.7 hPa WSW 1 km/h 3.7 km/h 85 % 0 mm
12:42 25.1 °C 22.2 °C 1009.7 hPa WSW 3.4 km/h 11.1 km/h 84 % 0 mm
12:47 25.1 °C 21.9 °C 1009.7 hPa WSW 1 km/h 3.7 km/h 83 % 0 mm
12:52 25.1 °C 21.9 °C 1009.7 hPa WSW 0.2 km/h 5.6 km/h 83 % 0 mm
12:57 25.1 °C 21.9 °C 1009.7 hPa Calm   1.6 km/h 83 % 0 mm
13:02 25.1 °C 21.9 °C 1009.7 hPa West 1.8 km/h 3.7 km/h 83 % 0 mm
13:07 25.1 °C 21.9 °C 1009.7 hPa WSW 3.2 km/h 5.6 km/h 83 % 0 mm
13:12 25.2 °C 22.3 °C 1009.4 hPa West 1.3 km/h 3.7 km/h 84 % 0 mm
13:13 25.2 °C 22.3 °C 1009.4 hPa WSW 1.8 km/h 5.6 km/h 84 % 0 mm
13:18 25.3 °C 22 °C 1009.4 hPa SW 1.4 km/h 5.6 km/h 82 % 0 mm
13:23 25.3 °C 21.8 °C 1009.4 hPa SW 2.9 km/h 5.6 km/h 81 % 0 mm
13:28 25.3 °C 21.8 °C 1009.4 hPa SW 1 km/h 3.7 km/h 81 % 0 mm
13:33 25.4 °C 21.9 °C 1009.4 hPa WNW 5.1 km/h 9.3 km/h 81 % 0 mm
13:38 25.5 °C 22 °C 1009.4 hPa West 0.8 km/h 5.6 km/h 81 % 0 mm
13:43 25.6 °C 22.3 °C 1009.4 hPa WSW 5.5 km/h 9.3 km/h 82 % 0 mm
13:48 25.6 °C 22.3 °C 1009 hPa WSW 3.9 km/h 5.6 km/h 82 % 0 mm
13:53 25.7 °C 22.2 °C 1009 hPa West 1 km/h 7.4 km/h 81 % 0 mm
13:58 25.7 °C 22.2 °C 1009 hPa West 1.3 km/h 5.6 km/h 81 % 0 mm
14:03 25.7 °C 22.4 °C 1009 hPa WSW 1.8 km/h 5.6 km/h 82 % 0 mm
14:08 25.8 °C 22.1 °C 1009 hPa WSW 4.8 km/h 9.3 km/h 80 % 0 mm
14:13 25.8 °C 21.9 °C 1009 hPa West 2.6 km/h 7.4 km/h 79 % 0 mm
14:18 25.9 °C 22 °C 1009 hPa Calm   3.7 km/h 79 % 0 mm
14:23 26.1 °C 22.3 °C 1009 hPa West 3.5 km/h 7.4 km/h 80 % 0 mm
14:28 26.2 °C 22.3 °C 1008.7 hPa West 4.2 km/h 6.4 km/h 79 % 0 mm
14:33 26.4 °C 22.1 °C 1008.7 hPa SW 9.2 km/h 18.5 km/h 77 % 0 mm
14:38 26.6 °C 21.6 °C 1009 hPa SW 7.1 km/h 13 km/h 74 % 0 mm
14:48 26.5 °C 21.7 °C 1008.7 hPa WSW 6.9 km/h 13 km/h 75 % 0 mm
14:53 26.5 °C 21.9 °C 1008.7 hPa WSW 2.9 km/h 7.4 km/h 76 % 0 mm
14:58 26.5 °C 21.9 °C 1008.7 hPa WSW 9.5 km/h 12.9 km/h 76 % 0 mm
15:04 26.5 °C 21.5 °C 1008.7 hPa WNW 1.9 km/h 9.3 km/h 74 % 0 mm
15:09 26.6 °C 21.6 °C 1008.7 hPa WNW 3.4 km/h 8 km/h 74 % 0 mm
15:14 26.8 °C 21.6 °C 1008.7 hPa West 7.4 km/h 11.1 km/h 73 % 0 mm
15:19 26.9 °C 21.4 °C 1008.7 hPa West 7.6 km/h 9.7 km/h 72 % 0 mm
15:24 27.1 °C 21.6 °C 1008.7 hPa WNW 4.8 km/h 7.4 km/h 72 % 0 mm
15:29 27.2 °C 21.4 °C 1008.7 hPa West 4 km/h 13 km/h 71 % 0 mm
15:34 27.2 °C 21.7 °C 1008.4 hPa WSW 0.8 km/h 7.4 km/h 72 % 0 mm
15:39 27.4 °C 21.2 °C 1008.4 hPa West 5.8 km/h 9.7 km/h 69 % 0 mm
15:44 27.6 °C 21.7 °C 1008.4 hPa South 3.2 km/h 9.3 km/h 70 % 0 mm
15:49 27.8 °C 21.8 °C 1008.4 hPa SW 9.2 km/h 16.7 km/h 70 % 0 mm
15:54 28 °C 20.8 °C 1008.4 hPa West 6.9 km/h 14.8 km/h 65 % 0 mm
15:59 28.1 °C 20.9 °C 1008.4 hPa West 1.8 km/h 6.4 km/h 65 % 0 mm
16:04 28.2 °C 20.7 °C 1008.4 hPa WNW 2.6 km/h 6.4 km/h 64 % 0 mm
16:09 28.2 °C 21 °C 1008.4 hPa SSW 1.4 km/h 3.7 km/h 65 % 0 mm
16:14 28.2 °C 20.4 °C 1008.4 hPa WNW 4.2 km/h 6.4 km/h 63 % 0 mm
16:19 28.2 °C 20.9 °C 1008.4 hPa East 0.3 km/h 1.9 km/h 65 % 0 mm
16:24 28.2 °C 20.7 °C 1008.4 hPa WSW 4 km/h 9.7 km/h 64 % 0 mm
16:34 28 °C 20.3 °C 1008.4 hPa West 4.5 km/h 11.1 km/h 63 % 0 mm
16:39 28 °C 20.8 °C 1008.4 hPa NW 2.3 km/h 9.3 km/h 65 % 0 mm
16:45 27.9 °C 20.2 °C 1008.4 hPa WNW 7.1 km/h 9.7 km/h 63 % 0 mm
16:50 27.9 °C 20.4 °C 1008.4 hPa WSW 4.5 km/h 9.3 km/h 64 % 0 mm
16:55 27.8 °C 20.4 °C 1008.4 hPa WNW 3.9 km/h 9.3 km/h 64 % 0.25 mm
17:00 27.8 °C 20.7 °C 1008.4 hPa WNW 2.6 km/h 9.3 km/h 65 % 0.25 mm
17:05 27.7 °C 20.3 °C 1008.4 hPa WNW 1.9 km/h 5.6 km/h 64 % 0.25 mm
17:10 27.6 °C 20.2 °C 1008.7 hPa SW 3.4 km/h 6.4 km/h 64 % 0.25 mm
17:15 27.5 °C 20.1 °C 1008.4 hPa SW 3.7 km/h 8 km/h 64 % 0.25 mm
17:20 27.4 °C 20.8 °C 1008.4 hPa WNW 0.2 km/h 5.6 km/h 67 % 0.25 mm
17:25 27.3 °C 20.1 °C 1008.7 hPa WNW 5 km/h 9.3 km/h 65 % 0.25 mm
17:30 27 °C 19.8 °C 1008.7 hPa WNW 2.6 km/h 5.6 km/h 65 % 0.25 mm
17:35 26.9 °C 20.2 °C 1008.7 hPa SSW 0.8 km/h 5.6 km/h 67 % 0.25 mm
17:40 26.8 °C 20.2 °C 1008.7 hPa WSW 4 km/h 7.4 km/h 67 % 0.25 mm
17:45 26.7 °C 19.3 °C 1008.7 hPa SW 2.1 km/h 11.1 km/h 64 % 0.25 mm
17:50 26.6 °C 19.2 °C 1008.7 hPa SW 8.2 km/h 14.8 km/h 64 % 0.25 mm
17:55 26.4 °C 18.8 °C 1008.7 hPa NNW 11.3 km/h 20.4 km/h 63 % 0 mm
18:00 26.3 °C 18.4 °C 1008.7 hPa WSW 6.1 km/h 13 km/h 62 % 0 mm
18:05 26.2 °C 17.8 °C 1008.7 hPa WNW 6.1 km/h 16.7 km/h 60 % 0 mm
18:15 26 °C 17.9 °C 1008.7 hPa West 6.4 km/h 11.1 km/h 61 % 0 mm
18:20 25.9 °C 17.8 °C 1008.7 hPa West 6.6 km/h 9.7 km/h 61 % 0 mm
18:25 25.9 °C 17.8 °C 1009 hPa WNW 12.2 km/h 16.7 km/h 61 % 0 mm
18:30 25.8 °C 17.4 °C 1009 hPa SW 7.9 km/h 14.8 km/h 60 % 0 mm
18:35 25.7 °C 17.3 °C 1009 hPa WNW 7.7 km/h 16.7 km/h 60 % 0 mm
18:40 25.6 °C 17.5 °C 1009 hPa WSW 9.8 km/h 14.8 km/h 61 % 0 mm
18:45 25.4 °C 17.6 °C 1009.4 hPa West 0.8 km/h 5.6 km/h 62 % 0 mm
18:50 25.3 °C 18.1 °C 1009.4 hPa West 3.4 km/h 14.8 km/h 64 % 0 mm
18:55 25.2 °C 17.9 °C 1009.4 hPa WSW 6.1 km/h 11.1 km/h 64 % 0 mm
19:00 25 °C 17.4 °C 1009.4 hPa West 9.3 km/h 17.7 km/h 63 % 0 mm
19:05 24.8 °C 17.1 °C 1009.7 hPa West 1.9 km/h 5.6 km/h 62 % 0 mm
19:10 24.8 °C 17.3 °C 1009.7 hPa WSW 6.8 km/h 13 km/h 63 % 0 mm
19:15 24.6 °C 17.3 °C 1009.7 hPa West 5.8 km/h 12.9 km/h 64 % 0 mm
19:20 24.5 °C 17 °C 1009.7 hPa NNW 6.3 km/h 14.8 km/h 63 % 0 mm
19:22 24.4 °C 17.2 °C 1009.7 hPa WNW 7.4 km/h 17.7 km/h 64 % 0 mm
19:27 24.4 °C 16.6 °C 1010 hPa WNW 12.2 km/h 20.4 km/h 62 % 0 mm
19:32 24.3 °C 16.6 °C 1010 hPa NW 10.8 km/h 16.7 km/h 62 % 0 mm
19:37 24.2 °C 16.2 °C 1010.4 hPa West 11.1 km/h 19.3 km/h 61 % 0 mm
19:42 24.1 °C 16.3 °C 1010 hPa WNW 11.9 km/h 16.7 km/h 62 % 0 mm
19:47 23.9 °C 15.7 °C 1010.4 hPa WNW 8.4 km/h 18.5 km/h 60 % 0 mm
19:52 23.8 °C 15.6 °C 1010.4 hPa WNW 8.4 km/h 16.7 km/h 60 % 0 mm
19:57 23.7 °C 15.5 °C 1010.7 hPa WNW 0.8 km/h 4.8 km/h 60 % 0 mm
20:02 23.7 °C 15.4 °C 1010.7 hPa WNW 6.8 km/h 13 km/h 60 % 0 mm
20:07 23.6 °C 15.3 °C 1010.7 hPa NW 6.3 km/h 16.7 km/h 60 % 0 mm
20:12 23.4 °C 15.5 °C 1010.7 hPa WSW 1.9 km/h 8 km/h 61 % 0 mm
20:17 23.3 °C 15.7 °C 1010.7 hPa WNW 7.6 km/h 17.7 km/h 62 % 0 mm
20:21 23.3 °C 15.3 °C 1010.7 hPa West 8.4 km/h 11.3 km/h 61 % 0 mm
20:26 23.2 °C 15.2 °C 1010.7 hPa WNW 4.2 km/h 9.3 km/h 61 % 0 mm
20:31 23.1 °C 15.4 °C 1010.7 hPa West 7.9 km/h 16.7 km/h 62 % 0 mm
20:36 23 °C 15.3 °C 1011.1 hPa WNW 6.9 km/h 14.5 km/h 62 % 0 mm
20:41 22.9 °C 15.3 °C 1011.4 hPa West 4.2 km/h 9.3 km/h 62 % 0 mm
20:46 22.9 °C 15.3 °C 1011.4 hPa WSW 5.8 km/h 7.4 km/h 62 % 0 mm
20:51 22.8 °C 15.4 °C 1011.4 hPa NW 1.1 km/h 9.3 km/h 63 % 0 mm
20:56 22.8 °C 15.4 °C 1011.7 hPa SW 7.7 km/h 11.3 km/h 63 % 0 mm
21:01 22.7 °C 15.3 °C 1011.7 hPa WNW 7.1 km/h 13 km/h 63 % 0 mm
21:06 22.7 °C 15.3 °C 1011.7 hPa NNE 7.1 km/h 18.5 km/h 63 % 0 mm
21:12 22.6 °C 14.9 °C 1011.7 hPa WNW 7.6 km/h 13 km/h 62 % 0 mm
21:17 22.6 °C 15.2 °C 1011.7 hPa WSW 9.5 km/h 14.8 km/h 63 % 0 mm
21:22 22.6 °C 15.2 °C 1011.7 hPa West 3.7 km/h 18.5 km/h 63 % 0 mm
21:27 22.6 °C 15.2 °C 1012.1 hPa SW 3.7 km/h 9.3 km/h 63 % 0 mm
21:32 22.6 °C 15.4 °C 1012.1 hPa WNW 8.7 km/h 11.3 km/h 64 % 0 mm
21:37 22.5 °C 15.3 °C 1012.1 hPa WNW 4.7 km/h 9.3 km/h 64 % 0 mm
21:42 22.4 °C 15.6 °C 1012.1 hPa West 2.7 km/h 5.6 km/h 65 % 0 mm
21:47 22.4 °C 15.5 °C 1012.1 hPa WSW 0.3 km/h 1.9 km/h 65 % 0 mm
21:52 22.4 °C 15.5 °C 1012.1 hPa West 5.5 km/h 16.1 km/h 65 % 0 mm
21:57 22.3 °C 15.4 °C 1012.4 hPa SW 2.6 km/h 8 km/h 65 % 0 mm
22:02 22.2 °C 15.6 °C 1012.4 hPa Calm   1.9 km/h 66 % 0 mm
22:07 22.2 °C 15.5 °C 1012.4 hPa WNW 5.1 km/h 13 km/h 66 % 0 mm
22:12 22.1 °C 15.7 °C 1012.1 hPa WNW 2.1 km/h 7.4 km/h 67 % 0 mm
22:17 22 °C 14.9 °C 1012.4 hPa WSW 8 km/h 13 km/h 64 % 0 mm
22:22 22 °C 15.1 °C 1012.4 hPa NW 6.8 km/h 13 km/h 65 % 0 mm
22:27 22 °C 15.1 °C 1012.4 hPa WNW 3.2 km/h 5.6 km/h 65 % 0 mm
22:32 21.9 °C 15.1 °C 1012.4 hPa WNW 6.4 km/h 9.3 km/h 65 % 0 mm
22:37 21.9 °C 15 °C 1012.4 hPa WNW 5.5 km/h 13 km/h 65 % 0 mm
22:42 21.9 °C 15 °C 1012.8 hPa West 5.3 km/h 11.1 km/h 65 % 0 mm
22:47 21.8 °C 14.7 °C 1012.4 hPa WNW 1.4 km/h 6.4 km/h 64 % 0 mm
22:52 21.8 °C 14.9 °C 1012.4 hPa West 7.1 km/h 14.5 km/h 65 % 0 mm
22:57 21.7 °C 14.8 °C 1012.4 hPa WNW 5.5 km/h 16.7 km/h 65 % 0 mm
23:02 21.7 °C 14.8 °C 1012.4 hPa WSW 5.6 km/h 18.5 km/h 65 % 0 mm
23:12 21.6 °C 14.7 °C 1012.4 hPa West 0.6 km/h 5.6 km/h 65 % 0 mm
23:18 21.6 °C 14.7 °C 1012.4 hPa WNW 3.1 km/h 13 km/h 65 % 0 mm
23:20 21.6 °C 14.7 °C 1012.8 hPa NW 3.7 km/h 12.9 km/h 65 % 0 mm
23:25 21.5 °C 14.7 °C 1012.8 hPa SW 3.9 km/h 14.8 km/h 65 % 0 mm
23:30 21.4 °C 14.3 °C 1012.8 hPa SSW 5.3 km/h 13 km/h 64 % 0 mm
23:35 21.4 °C 14.6 °C 1012.8 hPa West 3.5 km/h 7.4 km/h 65 % 0 mm
23:40 21.3 °C 14.5 °C 1012.8 hPa WNW 2.7 km/h 7.4 km/h 65 % 0 mm
23:45 21.3 °C 14.4 °C 1013.1 hPa West 7.9 km/h 13 km/h 65 % 0 mm
23:50 21.2 °C 14.4 °C 1013.1 hPa West 3.2 km/h 5.6 km/h 65 % 0 mm
23:55 21.2 °C 14.6 °C 1012.8 hPa NW 2.7 km/h 5.6 km/h 66 % 0 mm
Crab Meadow Weather
Compliments of Weather Underground - 3 mb

Script developed by  Jim McMurry - jmcmurry@mwt.net Adapted for the template by  Wim van der Kuil - Leuven-Template.eu

Recycling: We use over 80,000,000,000 aluminum soda cans every year.